Flag for Netherlands Weather past 2 weeks in Zoetermeer, Netherlands

Now
55 °F

Clear.


Feels Like: 55 °F
Forecast: 41 / 63 °F
Wind: 2 mph from North

Location: Rotterdam Zestienhoven Airport

Current Time: May 23, 2015 at 5:33:42 AM

Latest Report: May 23, 2015 at 4:55 AM


Visibility: 6 mi

Pressure: 30.15 "Hg

Humidity: 88%

Dew point: 52 °F

Location of ZoetermeerLocation

Historic Weather in Zoetermeer — Graph

°F

Zoetermeer temperature yesterday

Maximum temperature yesterday: 66 °F (at 1:25 PM)
Minimum temperature yesterday: 54 °F (at 4:55 AM)
Average temperature yesterday: 58 °F

Past Weeks' High & Low Weather Summary

 TemperatureHumidityPressure
High75 °F (May 11, 1:25 PM)100% (May 10, 5:25 AM)30.33 "Hg (May 10, 5:25 AM)
Low41 °F (May 14, 2:25 AM)46% (May 8, 4:25 PM)29.59 "Hg (May 18, 6:55 PM)
Average55 °F74%30.05 "Hg
* Reported May 8 4:25 AM — May 23 4:25 AM, Zoetermeer, Weather by CustomWeather, © 2015

Note: Actual official high and low records may vary slightly from our data, if they occured in-between our weather recording intervals... More about our weather records

Advertising

Zoetermeer weather history for previous 24 hours

 ConditionsComfort  
Time TempWeatherWind HumidityBarometerVisibility
4:25 AM
Sat, May 23
55 °FPassing clouds.3 mph88%30.18 "HgN/A
3:55 AM55 °FOvercast.3 mph88%30.18 "HgN/A
3:25 AM55 °FClear.5 mph88%30.18 "HgN/A
2:55 AM55 °FClear.5 mph88%30.18 "HgN/A
2:25 AM54 °FClear.3 mph88%30.18 "HgN/A
1:55 AM54 °FClear.5 mph94%30.18 "HgN/A
1:25 AM54 °FClear.5 mph88%30.21 "HgN/A
12:55 AM54 °FClear.5 mph88%30.21 "HgN/A
12:25 AM54 °FClear.5 mph88%30.21 "HgN/A
11:55 PM
Fri, May 22
55 °FClear.5 mph82%30.21 "HgN/A
11:25 PM54 °FClear.3 mph88%30.21 "HgN/A
10:55 PM55 °FClear.6 mph82%30.21 "HgN/A
10:25 PM55 °FClear.5 mph77%30.21 "HgN/A
9:55 PM55 °FClear.3 mph77%30.21 "HgN/A
9:25 PM55 °FClear.3 mph77%30.21 "HgN/A
8:55 PM57 °FClear.6 mph72%30.21 "HgN/A
8:25 PM57 °FClear.2 mph72%30.21 "HgN/A
7:55 PM59 °FClear.5 mph63%30.21 "HgN/A
7:25 PM59 °FClear.6 mph68%30.21 "HgN/A
6:55 PM61 °FClear.8 mph59%30.21 "HgN/A
6:25 PM61 °FClear.9 mph59%30.24 "HgN/A
5:55 PM61 °FClear.8 mph59%30.24 "HgN/A
5:25 PM61 °FClear.12 mph59%30.24 "HgN/A
4:55 PM61 °FClear.12 mph63%30.24 "HgN/A
4:25 PM61 °FClear.13 mph68%30.24 "HgN/A
3:55 PM64 °FClear.13 mph64%30.24 "HgN/A
3:25 PM66 °FClear.12 mph56%30.24 "HgN/A
2:55 PM66 °FPassing clouds.10 mph60%30.24 "HgN/A
2:25 PM66 °FScattered clouds.10 mph60%30.24 "HgN/A
1:55 PM66 °FPartly sunny.12 mph60%30.24 "HgN/A
1:25 PM66 °FScattered clouds.10 mph64%30.27 "HgN/A
12:55 PM64 °FPassing clouds.10 mph68%30.27 "HgN/A
12:25 PM63 °FPassing clouds.10 mph73%30.27 "HgN/A
11:55 AM63 °FPassing clouds.10 mph73%30.27 "HgN/A
11:25 AM61 °FPassing clouds.10 mph72%30.27 "HgN/A
10:55 AM59 °FClear.9 mph82%30.27 "HgN/A
10:25 AM59 °FScattered clouds.8 mph77%30.30 "Hg6 mi
9:55 AM57 °FScattered clouds.8 mph82%30.30 "Hg6 mi
9:25 AM55 °FScattered clouds.8 mph88%30.30 "HgN/A
8:55 AM55 °FClear.8 mph82%30.30 "HgN/A
8:25 AM55 °FClear.7 mph82%30.30 "HgN/A
7:55 AM54 °FClear.9 mph88%30.27 "HgN/A
7:25 AM54 °FClear.8 mph82%30.27 "HgN/A
6:55 AM54 °FClear.8 mph82%30.27 "HgN/A
6:25 AM54 °FClear.9 mph82%30.27 "HgN/A
5:55 AM54 °FClear.9 mph82%30.27 "HgN/A
5:25 AM54 °FClear.9 mph82%30.27 "HgN/A
Weather by CustomWeather, © 2015

See weather overviewHow to use our weather pages